Showing default

JILIN-01-08, 43160

Orbit data source: Space-Track

JILIN-01-08, 43160 is a payload satellite owned by Changguang WJ (CN) in SSO that was launched on Fri, 19 Jan 2018 UTC via a CHANG ZHENG 11 launch vehicle from the Jiuquan Satellite Launch Center, China (JSC). Payloads include a variety of satellites, spacecraft, and rockets equipped with specific instruments for various scientific and technological missions. These include communications satellites like Starlink; space stations such as the ISS; scientific satellites like the Hubble; Earth observation satellites from companies like Planet Labs, Umbra, and HawkEye 360; GPS; miniature CubeSats for education and research; and military/defense satellites.

Loading next visibility...
JILIN-01-08 details
Identifier
43160, 2018-008F
Orbit
SSO
Last TLE update9 hours ago
Origin
Flag of CNChangguang WJ (CN / PRC)
ManufacturerChangguang WJ
MissionOperational Commercial Imaging
Bus & MotorJL-1, Unknown motor
Mass95 kg wet, 95 kg dry
Launch date (UTC)
2018-01-19 (7 years ago)
Launch vehicle
CHANG ZHENG 11
Launch site
Jiuquan Satellite Launch Center, China (JSC)
Object type
Payload
Rocket body
Debris
Shape & HBRBox + 2 Pan, 1.5 m
Radar Cross Section2.000 m², Medium (>0.1 m² and < 1m²)

Expand to show TLE details & history

TLE from 9 hours ago
0 JILIN-01-08
1 43160U 18008F   24348.77945481  .00009296  00000-0  39477-3 0  9996
2 43160  97.2277  14.6713 0006070 225.3067 134.7676 15.23264499380853
Epoch: 2024-12-13T18:42Z
Definitive object data (Epoch: 2024-12-13T18:42:24.895Z)
Latitude-0.00008°
Longitude11.12705°
Altitude502.042 km
Speed7.612 km/s
True Right ascension00h 58m 41s
True Declination0° 00' 00"
Sunlit
Object was in daylight at TLE epoch
Visualization TLE readout
Latitude-32.26715°
Longitude-173.08669°
Altitude504.128 km
Speed7.613 km/s
Apparent Right ascension13h 19m 16s
Apparent Declination-36° 12' 22"
Sunlit
Object is in daylight
Visualization observer readout
Local Sidereal Time02:03:53
Azimuth70.611° E
Elevation-80.476°
Doppler factor1
Orbital elements
Apogee altitude497.126 km
Perigee altitude488.785 km
Semi-major axis6,871.093 km
Eccentricity0.000607
Inclination97.2277°
RAAN14.6713°
Arg. of periapsis225.3067°
True anomaly134.81696°
Mean anomaly134.7676°
Eccentric anomaly134.79228°
Mean motion3.8107 °/min
BSTAR0.00039477
Orbital period94.47 mins
Loading maneuver chart data...
Loading historical data...
Loading historical data...
Loading historical data...
Loading historical data...
Loading historical data...
Loading historical data...
Loading historical data...

JILIN-01-08 Visibility forecast

Observer location: undefined°, undefined

Span
Click to sort rows by Start time (UTC) header in descending order
Start Az.
Max El. time (UTC)
Max El. Az.
Max El.
End time (UTC)
End Az.
5 mins2024-12-14 14:12:09.114Z43.281° NE2024-12-14 14:14:09.114Z83.991° E24.444°2024-12-14 14:17:09.114Z151.707° SSE
5 mins2024-12-15 02:23:09.114Z206.335° SW2024-12-15 02:25:09.114Z285.695° WNW33.495°2024-12-15 02:28:09.114Z334.894° NNW
|